CW3953 Weather Reports


time (UTC)temp
F
wind
direction
speed
knots
gust
knots
rain 1hr
in
rain 24hr
in
rain mn
in
humidity
%
barometer
mb
20260504081503 50 0 0.0 0.0 0.00 0.00 0.00 75 1002.7
20260504050010 58 0 0.0 0.0 0.00 0.00 0.00 66 1004.6
20260504044502 58 0 0.0 0.0 0.00 0.00 0.00 66 1004.6
20260504043004 58 0 0.0 0.0 0.00 0.00 0.00 66 1004.6
20260504041502 58 0 0.0 0.0 0.00 0.00 0.00 66 1004.6
20260504034502 59 0 0.0 0.0 0.00 0.00 0.00 65 1004.8
20260504033004 59 0 0.0 0.0 0.00 0.00 0.00 65 1004.9
20260504031503 60 0 0.0 0.0 0.00 0.00 0.00 64 1004.9
20260504030004 60 0 0.0 0.0 0.00 0.00 0.00 63 1005.0
20260504024503 60 0 0.0 0.0 0.00 0.00 0.00 62 1005.0
20260504023004 60 0 0.0 0.0 0.00 0.00 0.00 62 1005.0
20260504021502 60 0 0.0 0.0 0.00 0.00 0.00 62 1004.9
20260504014502 61 0 0.0 0.0 0.00 0.00 0.00 60 1004.9
20260504011503 64 0 0.0 0.0 0.00 0.00 0.00 54 1004.4
20260504010004 65 0 0.0 0.0 0.00 0.00 0.00 52 1004.3
20260504004502 66 0 0.0 0.0 0.00 0.00 0.00 50 1004.3
20260504003004 67 0 0.0 0.0 0.00 0.00 0.00 49 1004.4
20260504001503 68 0 0.0 0.0 0.00 0.00 0.00 48 1004.3
20260504000005 68 0 0.0 0.0 0.00 0.00 0.00 47 1004.4
20260503234503 68 0 0.0 0.0 0.00 0.00 0.00 46 1004.4
20260503233006 69 0 0.0 0.0 0.00 0.00 0.00 45 1004.4
20260503230004 69 0 0.0 0.0 0.00 0.00 0.00 46 1004.5
20260503224502 69 0 0.0 0.0 0.00 0.00 0.00 47 1004.5
20260503223004 69 0 0.0 0.0 0.00 0.00 0.00 46 1004.6
20260503221502 68 0 0.0 0.0 0.00 0.00 0.00 46 1004.8
20260503220004 68 0 0.0 0.0 0.00 0.00 0.00 47 1004.9
20260503214502 68 0 0.0 0.0 0.00 0.00 0.00 46 1004.9
20260503211503 66 0 0.0 0.0 0.00 0.00 0.00 47 1005.5
20260503210005 68 0 0.0 0.0 0.00 0.00 0.00 46 1005.7
20260503204505 66 0 0.0 0.0 0.00 0.00 0.00 47 1006.0
20260503203004 65 0 0.0 0.0 0.00 0.00 0.00 47 1006.2
20260503201503 64 0 0.0 0.0 0.00 0.00 0.00 51 1006.6
20260503200004 64 0 0.0 0.0 0.00 0.00 0.00 51 1007.1
20260503194502 64 0 0.0 0.0 0.00 0.00 0.00 54 1007.3
20260503193005 63 0 0.0 0.0 0.00 0.00 0.00 56 1007.6
20260503190004 61 0 0.0 0.0 0.00 0.00 0.00 55 1007.6
20260503183004 60 0 0.0 0.0 0.00 0.00 0.00 55 1007.9
20260503181504 60 0 0.0 0.0 0.00 0.00 0.00 58 1008.3
20260503173004 57 0 0.0 0.0 0.00 0.00 0.00 64 1009.6
20260503171502 56 0 0.0 0.0 0.00 0.00 0.00 66 1010.2